QPF
0.00 0.00 0.00 0.00 0.01 0.01 0.01 0.01 0.02 0.03 0.03 0.04 0.04 0.03 0.03 0.04 0.04 0.05 0.05 0.06 0.07 0.09 0.11 0.11 0.13 0.16 0.16 0.14 0.19 0.23 0.23 0.21 0.27 0.25 0.16 0.11 0.08 0.07 0.05 0.05 0.04 0.03 0.03
0.00 0.00 0.01 0.01 0.02 0.02 0.01 0.00 0.01 0.02 0.03 0.03 0.02 0.02 0.03 0.03 0.04 0.04 0.03 0.04 0.04 0.06 0.07 0.09 0.09 0.12 0.13 0.14 0.17 0.20 0.20 0.17 0.25 0.27 0.24 0.16 0.12 0.08 0.06 0.04 0.04 0.03 0.03
0.01 0.01 0.01 0.01 0.00 0.00 0.00 0.00 0.01 0.02 0.01 0.01 0.01 0.02 0.03 0.02 0.02 0.02 0.02 0.02 0.02 0.03 0.04 0.04 0.05 0.06 0.09 0.09 0.11 0.15 0.18 0.17 0.19 0.24 0.29 0.23 0.15 0.14 0.09 0.07 0.04 0.03 0.03
0.01 0.01 0.01 0.01 0.00 0.00 0.00 0.00 0.00 0.00 0.01 0.01 0.02 0.03 0.02 0.02 0.02 0.01 0.01 0.00 0.00 0.00 0.01 0.01 0.01 0.02 0.04 0.05 0.06 0.10 0.13 0.17 0.16 0.18 0.19 0.21 0.24 0.22 0.14 0.08 0.06 0.05 0.04
0.02 0.02 0.01 0.00 0.00 0.00 0.00 0.00 0.00 0.00 0.00 0.01 0.01 0.02 0.01 0.01 0.00 0.00 0.00 0.00 0.00 0.00 0.00 0.00 0.00 0.01 0.02 0.03 0.03 0.04 0.07 0.09 0.11 0.13 0.13 0.13 0.15 0.14 0.12 0.08 0.06 0.06 0.05
0.02 0.01 0.00 0.00 0.00 0.00 0.00 0.00 0.00 0.00 0.00 0.01 0.01 0.01 0.01 0.01 0.00 0.00 0.00 0.00 0.00 0.00 0.00 0.00 0.00 0.01 0.01 0.01 0.01 0.02 0.03 0.05 0.06 0.07 0.09 0.09 0.09 0.08 0.08 0.08 0.08 0.08 0.08
0.02 0.01 0.01 0.00 0.01 0.01 0.00 0.00 0.00 0.01 0.01 0.01 0.02 0.01 0.01 0.01 0.01 0.01 0.00 0.00 0.00 0.00 0.00 0.00 0.00 0.01 0.01 0.01 0.01 0.01 0.02 0.03 0.04 0.05 0.06 0.08 0.08 0.08 0.09 0.11 0.09 0.09 0.08
0.02 0.02 0.01 0.01 0.01 0.01 0.01 0.01 0.01 0.01 0.01 0.02 0.02 0.02 0.01 0.01 0.01 0.01 0.00 0.00 0.00 0.00 0.00 0.00 0.00 0.00 0.00 0.01 0.01 0.01 0.01 0.02 0.03 0.03 0.06 0.08 0.08 0.09 0.09 0.10 0.10 0.09 0.08
0.02 0.02 0.02 0.02 0.02 0.01 0.01 0.01 0.00 0.00 0.01 0.01 0.02 0.02 0.02 0.02 0.01 0.01 0.01 0.00 0.00 0.00 0.00 0.00 0.00 0.00 0.00 0.01 0.01 0.02 0.02 0.03 0.04 0.04 0.06 0.08 0.08 0.11 0.11 0.10 0.11 0.12 0.11
0.02 0.02 0.02 0.02 0.02 0.01 0.01 0.01 0.00 0.00 0.00 0.01 0.01 0.01 0.02 0.02 0.02 0.02 0.02 0.01 0.01 0.00 0.00 0.00 0.00 0.00 0.00 0.01 0.01 0.02 0.02 0.03 0.04 0.05 0.06 0.07 0.08 0.10 0.11 0.11 0.11 0.13 0.14
0.01 0.02 0.02 0.02 0.02 0.01 0.01 0.01 0.01 0.01 0.01 0.01 0.01 0.01 0.02 0.02 0.02 0.03 0.02 0.01 0.01 0.01 0.00 0.00 0.00 0.00 0.00 0.01 0.01 0.02 0.02 0.03 0.03 0.04 0.05 0.06 0.08 0.10 0.11 0.12 0.12 0.14 0.14
0.01 0.01 0.01 0.01 0.01 0.01 0.01 0.01 0.01 0.00 0.00 0.00 0.01 0.01 0.01 0.01 0.02 0.03 0.02 0.01 0.01 0.01 0.00 0.00 0.00 0.00 0.00 0.01 0.01 0.01 0.02 0.02 0.03 0.04 0.05 0.06 0.08 0.11 0.12 0.12 0.12 0.14 0.15
0.00 0.01 0.01 0.01 0.01 0.01 0.01 0.01 0.00 0.00 0.00 0.00 0.00 0.01 0.02 0.02 0.02 0.02 0.01 0.01 0.01 0.01 0.00 0.00 0.00 0.00 0.00 0.00 0.00 0.01 0.01 0.02 0.03 0.04 0.05 0.06 0.09 0.11 0.13 0.15 0.15 0.16 0.17
0.00 0.00 0.00 0.00 0.00 0.00 0.00 0.00 0.00 0.00 0.00 0.00 0.00 0.01 0.01 0.01 0.01 0.01 0.01 0.01 0.01 0.01 0.01 0.01 0.00 0.00 0.00 0.00 0.00 0.01 0.01 0.01 0.03 0.06 0.07 0.07 0.08 0.12 0.18 0.21 0.23 0.22 0.22
0.00 0.00 0.00 0.00 0.00 0.00 0.00 0.00 0.00 0.00 0.00 0.00 0.01 0.00 0.01 0.01 0.01 0.01 0.02 0.02 0.02 0.01 0.01 0.01 0.00 0.00 0.00 0.00 0.00 0.01 0.01 0.02 0.02 0.04 0.06 0.08 0.09 0.11 0.14 0.19 0.23 0.25 0.26
0.01 0.01 0.01 0.01 0.01 0.01 0.00 0.00 0.00 0.00 0.00 0.00 0.00 0.00 0.00 0.00 0.00 0.01 0.02 0.03 0.03 0.03 0.03 0.02 0.01 0.01 0.00 0.00 0.01 0.01 0.01 0.02 0.03 0.05 0.06 0.06 0.08 0.08 0.10 0.12 0.16 0.22 0.24
0.01 0.01 0.01 0.01 0.01 0.00 0.00 0.00 0.00 0.00 0.00 0.00 0.00 0.00 0.00 0.00 0.01 0.01 0.02 0.03 0.04 0.05 0.04 0.04 0.03 0.02 0.01 0.00 0.00 0.01 0.01 0.01 0.02 0.04 0.06 0.06 0.06 0.07 0.07 0.08 0.10 0.13 0.17
0.00 0.00 0.00 0.00 0.00 0.00 0.00 0.00 0.00 0.00 0.00 0.00 0.00 0.00 0.00 0.00 0.01 0.02 0.02 0.04 0.05 0.05 0.05 0.05 0.04 0.03 0.02 0.01 0.01 0.01 0.01 0.02 0.03 0.03 0.04 0.05 0.05 0.06 0.06 0.05 0.05 0.06 0.09
0.00 0.00 0.00 0.00 0.00 0.00 0.00 0.00 0.00 0.00 0.00 0.00 0.00 0.00 0.00 0.01 0.01 0.02 0.03 0.04 0.06 0.06 0.06 0.06 0.05 0.04 0.03 0.01 0.01 0.02 0.02 0.02 0.04 0.05 0.04 0.04 0.04 0.04 0.04 0.04 0.04 0.03 0.04
0.00 0.00 0.00 0.00 0.00 0.00 0.00 0.00 0.00 0.00 0.00 0.00 0.00 0.00 0.00 0.01 0.01 0.02 0.04 0.05 0.08 0.09 0.10 0.09 0.08 0.07 0.06 0.03 0.02 0.02 0.03 0.03 0.05 0.05 0.04 0.05 0.05 0.03 0.03 0.04 0.03 0.03 0.02
0.00 0.00 0.00 0.00 0.00 0.00 0.00 0.00 0.00 0.00 0.00 0.00 0.00 0.00 0.00 0.01 0.02 0.03 0.04 0.07 0.11 0.14 0.15 0.14 0.12 0.10 0.08 0.05 0.02 0.01 0.03 0.05 0.06 0.05 0.05 0.06 0.04 0.03 0.02 0.03 0.03 0.02 0.01
0.00 0.00 0.00 0.00 0.00 0.00 0.00 0.00 0.00 0.00 0.00 0.01 0.01 0.00 0.01 0.01 0.01 0.02 0.04 0.08 0.13 0.19 0.21 0.21 0.19 0.15 0.12 0.08 0.03 0.01 0.02 0.04 0.06 0.05 0.04 0.04 0.03 0.02 0.01 0.01 0.01 0.01 0.00
0.00 0.00 0.00 0.00 0.00 0.00 0.00 0.01 0.01 0.01 0.01 0.01 0.01 0.01 0.01 0.01 0.02 0.04 0.05 0.08 0.13 0.21 0.25 0.26 0.27 0.23 0.18 0.13 0.06 0.02 0.01 0.02 0.04 0.03 0.02 0.02 0.02 0.01 0.01 0.01 0.00 0.00 0.00
0.00 0.00 0.00 0.00 0.00 0.00 0.00 0.01 0.01 0.01 0.02 0.02 0.02 0.02 0.02 0.02 0.02 0.04 0.07 0.10 0.15 0.24 0.29 0.30 0.30 0.29 0.26 0.19 0.09 0.02 0.01 0.01 0.02 0.01 0.01 0.01 0.01 0.01 0.00 0.00 0.00 0.00 0.00
0.00 0.00 0.00 0.00 0.00 0.01 0.01 0.01 0.02 0.03 0.03 0.03 0.03 0.03 0.03 0.03 0.03 0.04 0.07 0.10 0.15 0.23 0.30 0.32 0.32 0.33 0.29 0.21 0.13 0.05 0.01 0.01 0.01 0.01 0.00 0.00 0.00 0.01 0.01 0.00 0.00 0.00 0.00
0.00 0.00 0.01 0.01 0.01 0.01 0.01 0.01 0.02 0.03 0.04 0.03 0.03 0.03 0.03 0.03 0.04 0.05 0.06 0.09 0.14 0.20 0.25 0.30 0.33 0.32 0.29 0.24 0.18 0.11 0.04 0.01 0.00 0.00 0.00 0.00 0.00 0.00 0.00 0.00 0.00 0.00 0.00
MSLP
1008.42 1008.53 1008.65 1008.81 1009.01 1009.26 1009.57 1009.93 1010.31 1010.68 1011.01 1011.28 1011.45 1011.53 1011.52 1011.46 1011.36 1011.27 1011.18 1011.10 1011.04 1010.96 1010.85 1010.71 1010.51 1010.29 1010.06 1009.85 1009.67 1009.55 1009.49 1009.48 1009.50 1009.53 1009.54 1009.52 1009.47 1009.39 1009.29 1009.18 1009.09 1009.02 1008.97
1008.66 1008.74 1008.84 1008.97 1009.14 1009.36 1009.62 1009.93 1010.27 1010.60 1010.91 1011.16 1011.33 1011.43 1011.44 1011.41 1011.34 1011.27 1011.21 1011.15 1011.08 1011.00 1010.88 1010.70 1010.46 1010.18 1009.88 1009.58 1009.32 1009.11 1008.97 1008.89 1008.86 1008.87 1008.88 1008.88 1008.87 1008.83 1008.78 1008.71 1008.65 1008.59 1008.52
1009.01 1009.07 1009.16 1009.26 1009.39 1009.56 1009.76 1010.01 1010.29 1010.58 1010.84 1011.07 1011.24 1011.35 1011.39 1011.39 1011.36 1011.32 1011.29 1011.24 1011.19 1011.11 1010.97 1010.77 1010.50 1010.18 1009.81 1009.44 1009.10 1008.80 1008.57 1008.41 1008.32 1008.27 1008.26 1008.26 1008.26 1008.26 1008.25 1008.24 1008.21 1008.17 1008.12
1009.47 1009.52 1009.58 1009.66 1009.74 1009.84 1009.98 1010.16 1010.36 1010.58 1010.81 1011.00 1011.17 1011.28 1011.35 1011.38 1011.39 1011.39 1011.37 1011.35 1011.31 1011.23 1011.09 1010.88 1010.59 1010.24 1009.84 1009.42 1009.01 1008.63 1008.31 1008.07 1007.88 1007.76 1007.69 1007.66 1007.65 1007.66 1007.69 1007.72 1007.75 1007.76 1007.75
1010.02 1010.06 1010.10 1010.13 1010.16 1010.19 1010.25 1010.34 1010.46 1010.61 1010.78 1010.95 1011.10 1011.22 1011.31 1011.37 1011.40 1011.42 1011.42 1011.41 1011.37 1011.29 1011.15 1010.95 1010.66 1010.31 1009.90 1009.46 1009.00 1008.57 1008.17 1007.82 1007.54 1007.32 1007.16 1007.05 1007.00 1007.00 1007.05 1007.12 1007.21 1007.30 1007.37
1010.64 1010.67 1010.68 1010.66 1010.63 1010.58 1010.55 1010.55 1010.59 1010.67 1010.78 1010.91 1011.04 1011.16 1011.25 1011.32 1011.36 1011.38 1011.38 1011.35 1011.31 1011.22 1011.09 1010.90 1010.63 1010.30 1009.91 1009.47 1009.00 1008.53 1008.06 1007.62 1007.22 1006.88 1006.61 1006.40 1006.28 1006.24 1006.29 1006.41 1006.57 1006.76 1006.94
1011.32 1011.33 1011.30 1011.24 1011.13 1011.00 1010.88 1010.79 1010.74 1010.75 1010.81 1010.89 1010.99 1011.09 1011.17 1011.22 1011.24 1011.24 1011.21 1011.15 1011.08 1010.98 1010.84 1010.66 1010.43 1010.14 1009.79 1009.38 1008.93 1008.43 1007.91 1007.39 1006.88 1006.40 1005.99 1005.67 1005.45 1005.36 1005.40 1005.56 1005.81 1006.12 1006.45
1012.04 1012.03 1011.97 1011.84 1011.66 1011.46 1011.25 1011.07 1010.94 1010.87 1010.86 1010.90 1010.96 1011.02 1011.07 1011.08 1011.05 1010.99 1010.91 1010.80 1010.67 1010.54 1010.39 1010.23 1010.03 1009.79 1009.49 1009.14 1008.71 1008.22 1007.66 1007.07 1006.45 1005.85 1005.31 1004.86 1004.54 1004.38 1004.40 1004.60 1004.94 1005.39 1005.88
1012.80 1012.76 1012.66 1012.47 1012.23 1011.94 1011.65 1011.38 1011.18 1011.04 1010.97 1010.94 1010.95 1010.96 1010.95 1010.89 1010.80 1010.66 1010.49 1010.31 1010.12 1009.94 1009.77 1009.61 1009.44 1009.25 1009.02 1008.72 1008.34 1007.87 1007.30 1006.65 1005.95 1005.24 1004.58 1004.00 1003.58 1003.36 1003.37 1003.59 1004.02 1004.60 1005.27
1013.56 1013.50 1013.35 1013.11 1012.80 1012.44 1012.07 1011.73 1011.46 1011.25 1011.11 1011.02 1010.96 1010.90 1010.81 1010.68 1010.50 1010.27 1010.01 1009.74 1009.48 1009.24 1009.04 1008.88 1008.74 1008.60 1008.43 1008.19 1007.87 1007.43 1006.86 1006.19 1005.43 1004.64 1003.87 1003.21 1002.70 1002.42 1002.41 1002.66 1003.15 1003.85 1004.66
1014.28 1014.19 1014.00 1013.71 1013.34 1012.92 1012.49 1012.09 1011.75 1011.47 1011.26 1011.10 1010.97 1010.83 1010.67 1010.45 1010.18 1009.86 1009.52 1009.16 1008.83 1008.54 1008.31 1008.14 1008.02 1007.92 1007.80 1007.62 1007.36 1006.96 1006.43 1005.75 1004.97 1004.14 1003.32 1002.59 1002.03 1001.70 1001.67 1001.93 1002.47 1003.24 1004.17
1014.91 1014.78 1014.55 1014.22 1013.80 1013.34 1012.86 1012.41 1012.00 1011.66 1011.38 1011.15 1010.95 1010.73 1010.49 1010.20 1009.86 1009.47 1009.05 1008.63 1008.25 1007.92 1007.66 1007.49 1007.38 1007.30 1007.23 1007.11 1006.90 1006.56 1006.07 1005.43 1004.67 1003.84 1003.01 1002.26 1001.67 1001.33 1001.28 1001.54 1002.09 1002.89 1003.87
1015.39 1015.22 1014.94 1014.57 1014.12 1013.62 1013.11 1012.62 1012.16 1011.77 1011.43 1011.13 1010.86 1010.58 1010.27 1009.92 1009.52 1009.08 1008.62 1008.17 1007.76 1007.41 1007.14 1006.96 1006.86 1006.81 1006.77 1006.70 1006.54 1006.27 1005.84 1005.27 1004.57 1003.79 1003.00 1002.28 1001.71 1001.37 1001.31 1001.55 1002.09 1002.87 1003.84
1015.65 1015.43 1015.12 1014.71 1014.24 1013.73 1013.19 1012.67 1012.18 1011.74 1011.35 1011.00 1010.66 1010.33 1009.97 1009.58 1009.16 1008.70 1008.24 1007.78 1007.36 1007.01 1006.75 1006.57 1006.48 1006.44 1006.43 1006.39 1006.29 1006.09 1005.75 1005.27 1004.68 1004.00 1003.30 1002.65 1002.14 1001.82 1001.76 1001.98 1002.48 1003.21 1004.10
1015.66 1015.39 1015.04 1014.62 1014.13 1013.61 1013.07 1012.54 1012.03 1011.55 1011.12 1010.72 1010.34 1009.96 1009.58 1009.18 1008.75 1008.31 1007.86 1007.42 1007.02 1006.69 1006.43 1006.26 1006.17 1006.14 1006.15 1006.15 1006.10 1005.98 1005.74 1005.39 1004.93 1004.39 1003.83 1003.30 1002.88 1002.62 1002.58 1002.78 1003.21 1003.85 1004.65
1015.41 1015.08 1014.71 1014.27 1013.79 1013.28 1012.74 1012.21 1011.69 1011.19 1010.73 1010.29 1009.88 1009.48 1009.09 1008.69 1008.28 1007.86 1007.45 1007.05 1006.68 1006.37 1006.13 1005.96 1005.87 1005.84 1005.86 1005.89 1005.90 1005.85 1005.73 1005.52 1005.23 1004.87 1004.47 1004.10 1003.80 1003.63 1003.62 1003.80 1004.18 1004.72 1005.39
1014.91 1014.55 1014.15 1013.72 1013.25 1012.75 1012.23 1011.71 1011.19 1010.68 1010.20 1009.74 1009.31 1008.90 1008.51 1008.12 1007.73 1007.35 1006.98 1006.62 1006.29 1006.00 1005.76 1005.60 1005.50 1005.47 1005.49 1005.54 1005.60 1005.65 1005.65 1005.59 1005.47 1005.30 1005.10 1004.91 1004.75 1004.68 1004.73 1004.91 1005.24 1005.69 1006.24
1014.23 1013.84 1013.43 1013.00 1012.55 1012.08 1011.59 1011.08 1010.57 1010.06 1009.57 1009.11 1008.67 1008.25 1007.86 1007.49 1007.13 1006.78 1006.44 1006.12 1005.81 1005.53 1005.30 1005.13 1005.02 1004.98 1005.00 1005.07 1005.18 1005.31 1005.43 1005.52 1005.58 1005.61 1005.60 1005.59 1005.59 1005.64 1005.75 1005.95 1006.24 1006.62 1007.06
1013.43 1013.01 1012.60 1012.19 1011.77 1011.32 1010.85 1010.37 1009.87 1009.37 1008.89 1008.42 1007.98 1007.57 1007.19 1006.83 1006.49 1006.17 1005.85 1005.55 1005.25 1004.98 1004.74 1004.56 1004.43 1004.38 1004.40 1004.49 1004.64 1004.84 1005.07 1005.31 1005.53 1005.73 1005.91 1006.07 1006.22 1006.38 1006.56 1006.79 1007.07 1007.40 1007.77
1012.56 1012.14 1011.74 1011.34 1010.93 1010.51 1010.07 1009.61 1009.13 1008.65 1008.17 1007.72 1007.29 1006.88 1006.51 1006.17 1005.84 1005.53 1005.23 1004.93 1004.64 1004.37 1004.12 1003.92 1003.78 1003.72 1003.74 1003.86 1004.05 1004.32 1004.64 1004.99 1005.35 1005.70 1006.03 1006.33 1006.61 1006.86 1007.12 1007.38 1007.66 1007.96 1008.28
1011.68 1011.25 1010.86 1010.47 1010.08 1009.67 1009.25 1008.81 1008.35 1007.89 1007.44 1007.00 1006.59 1006.20 1005.84 1005.51 1005.20 1004.89 1004.60 1004.30 1004.01 1003.74 1003.49 1003.29 1003.15 1003.09 1003.12 1003.26 1003.49 1003.81 1004.20 1004.64 1005.10 1005.56 1006.00 1006.40 1006.77 1007.10 1007.41 1007.71 1008.00 1008.29 1008.60
1010.80 1010.37 1009.97 1009.59 1009.20 1008.80 1008.39 1007.97 1007.53 1007.10 1006.67 1006.26 1005.87 1005.51 1005.17 1004.85 1004.55 1004.26 1003.97 1003.68 1003.40 1003.13 1002.89 1002.70 1002.58 1002.54 1002.60 1002.76 1003.03 1003.39 1003.83 1004.33 1004.85 1005.37 1005.87 1006.34 1006.76 1007.14 1007.49 1007.81 1008.11 1008.42 1008.72
1009.93 1009.50 1009.09 1008.69 1008.29 1007.89 1007.48 1007.07 1006.66 1006.25 1005.85 1005.48 1005.12 1004.79 1004.48 1004.18 1003.90 1003.62 1003.34 1003.07 1002.80 1002.56 1002.34 1002.19 1002.10 1002.10 1002.20 1002.40 1002.71 1003.10 1003.57 1004.09 1004.63 1005.18 1005.70 1006.19 1006.63 1007.03 1007.39 1007.73 1008.05 1008.37 1008.69
1009.07 1008.62 1008.19 1007.77 1007.35 1006.93 1006.52 1006.11 1005.71 1005.34 1004.97 1004.64 1004.32 1004.02 1003.74 1003.47 1003.20 1002.94 1002.68 1002.43 1002.20 1001.99 1001.82 1001.72 1001.69 1001.75 1001.90 1002.15 1002.50 1002.92 1003.40 1003.92 1004.46 1004.99 1005.50 1005.98 1006.41 1006.81 1007.18 1007.53 1007.86 1008.20 1008.55
1008.24 1007.76 1007.29 1006.83 1006.38 1005.94 1005.51 1005.11 1004.73 1004.37 1004.05 1003.74 1003.46 1003.20 1002.94 1002.69 1002.45 1002.21 1001.97 1001.75 1001.55 1001.40 1001.29 1001.25 1001.30 1001.42 1001.64 1001.95 1002.33 1002.77 1003.25 1003.76 1004.28 1004.78 1005.26 1005.71 1006.12 1006.51 1006.88 1007.23 1007.59 1007.96 1008.33
1007.45 1006.93 1006.41 1005.90 1005.41 1004.94 1004.51 1004.10 1003.74 1003.40 1003.10 1002.83 1002.58 1002.33 1002.10 1001.86 1001.63 1001.40 1001.18 1000.98 1000.83 1000.72 1000.68 1000.72 1000.84 1001.04 1001.32 1001.68 1002.10 1002.56 1003.05 1003.54 1004.03 1004.50 1004.94 1005.36 1005.75 1006.13 1006.50 1006.88 1007.26 1007.66 1008.07
Thickness
5804 5804 5802 5799 5795 5789 5783 5777 5773 5769 5764 5761 5757 5754 5752 5751 5750 5749 5745 5741 5739 5737 5735 5736 5736 5734 5732 5732 5731 5730 5729 5728 5728 5724 5725 5730 5734 5735 5736 5737 5739 5742 5744
5793 5792 5791 5789 5786 5779 5774 5770 5766 5762 5758 5755 5752 5749 5746 5746 5745 5742 5738 5735 5733 5731 5732 5730 5729 5729 5726 5725 5725 5723 5722 5724 5724 5718 5715 5716 5723 5730 5734 5734 5735 5737 5740
5783 5782 5780 5778 5776 5771 5768 5765 5760 5756 5753 5750 5747 5744 5740 5739 5738 5735 5733 5730 5728 5726 5724 5723 5722 5721 5720 5721 5719 5718 5715 5715 5718 5716 5711 5707 5712 5721 5726 5729 5730 5731 5732
5775 5772 5770 5767 5766 5764 5762 5757 5753 5749 5746 5743 5741 5737 5733 5731 5730 5728 5727 5724 5722 5720 5718 5716 5714 5713 5714 5713 5713 5715 5711 5709 5710 5712 5711 5710 5711 5707 5711 5719 5725 5727 5727
5763 5761 5759 5757 5756 5755 5753 5750 5746 5742 5739 5736 5733 5730 5729 5728 5727 5724 5720 5717 5717 5714 5712 5710 5708 5706 5706 5706 5704 5704 5703 5704 5704 5705 5706 5706 5706 5707 5704 5707 5715 5719 5723
5752 5750 5749 5748 5746 5746 5744 5742 5738 5734 5732 5729 5727 5724 5722 5720 5718 5715 5714 5712 5712 5710 5708 5705 5702 5700 5700 5698 5697 5697 5697 5696 5697 5698 5699 5700 5701 5704 5704 5704 5707 5709 5714
5739 5737 5735 5734 5733 5732 5732 5731 5729 5725 5724 5723 5721 5719 5716 5714 5711 5710 5710 5706 5707 5705 5702 5700 5696 5695 5694 5692 5691 5690 5690 5690 5690 5692 5695 5697 5699 5701 5702 5700 5702 5703 5707
5726 5724 5723 5722 5722 5721 5720 5719 5717 5715 5715 5714 5712 5712 5710 5710 5710 5707 5705 5703 5702 5701 5697 5693 5691 5690 5688 5687 5686 5686 5686 5686 5686 5688 5689 5691 5695 5697 5698 5698 5698 5697 5699
5711 5710 5710 5709 5708 5707 5707 5707 5705 5704 5703 5703 5703 5703 5702 5701 5701 5700 5698 5699 5696 5695 5692 5688 5687 5685 5684 5682 5680 5682 5680 5681 5681 5683 5685 5686 5691 5693 5695 5696 5696 5693 5691
5700 5698 5696 5695 5694 5694 5693 5693 5692 5691 5691 5692 5692 5694 5693 5693 5693 5692 5691 5690 5689 5687 5685 5683 5681 5680 5679 5677 5675 5676 5677 5675 5675 5676 5678 5680 5685 5687 5689 5691 5693 5693 5690
5687 5685 5684 5682 5682 5681 5680 5679 5679 5679 5679 5679 5680 5681 5682 5683 5684 5683 5684 5683 5682 5681 5679 5677 5676 5674 5673 5672 5671 5671 5670 5670 5671 5671 5673 5675 5677 5680 5683 5685 5687 5687 5685
5676 5673 5670 5668 5667 5666 5665 5665 5665 5665 5665 5666 5667 5668 5669 5671 5672 5674 5675 5675 5675 5675 5673 5672 5670 5669 5668 5667 5665 5664 5664 5664 5664 5665 5666 5668 5671 5673 5676 5678 5679 5679 5679
5662 5659 5655 5653 5651 5650 5650 5650 5650 5650 5651 5652 5652 5654 5655 5657 5659 5661 5664 5665 5666 5667 5666 5665 5664 5663 5662 5661 5659 5658 5657 5657 5657 5658 5659 5660 5662 5664 5667 5669 5670 5671 5671
5647 5643 5639 5638 5637 5636 5635 5635 5635 5636 5636 5636 5637 5637 5639 5641 5645 5648 5651 5654 5656 5657 5658 5658 5657 5657 5656 5655 5653 5652 5650 5650 5650 5651 5651 5652 5653 5655 5657 5659 5660 5661 5660
5630 5627 5625 5624 5623 5622 5621 5621 5620 5620 5619 5619 5620 5620 5622 5626 5629 5632 5636 5640 5643 5647 5648 5649 5650 5650 5649 5649 5647 5644 5644 5643 5643 5643 5643 5643 5643 5644 5647 5649 5650 5650 5649
5617 5615 5613 5611 5609 5608 5606 5605 5604 5603 5602 5602 5603 5604 5605 5608 5611 5615 5619 5624 5628 5633 5636 5638 5640 5642 5644 5639 5634 5634 5636 5636 5636 5635 5635 5634 5634 5633 5634 5636 5638 5640 5640
5606 5603 5600 5597 5594 5592 5589 5586 5585 5584 5582 5582 5583 5585 5586 5589 5592 5597 5601 5606 5611 5617 5621 5626 5629 5632 5633 5628 5626 5624 5628 5630 5629 5628 5627 5628 5626 5625 5625 5624 5625 5626 5627
5593 5588 5584 5580 5577 5574 5570 5567 5565 5562 5562 5562 5563 5564 5566 5568 5572 5576 5581 5586 5593 5599 5605 5611 5617 5621 5623 5619 5617 5617 5621 5623 5622 5621 5620 5619 5617 5617 5617 5617 5615 5614 5614
5576 5571 5566 5562 5557 5553 5550 5547 5544 5543 5542 5542 5543 5544 5546 5548 5551 5555 5561 5567 5573 5581 5589 5596 5603 5609 5612 5610 5609 5609 5615 5616 5614 5613 5613 5612 5610 5605 5606 5608 5605 5603 5602
5561 5554 5549 5545 5540 5536 5532 5529 5528 5527 5527 5527 5527 5528 5529 5531 5535 5539 5544 5550 5556 5564 5572 5581 5589 5596 5603 5602 5601 5601 5609 5609 5607 5605 5604 5601 5601 5595 5597 5600 5598 5596 5595
5546 5540 5536 5532 5528 5524 5521 5519 5518 5517 5517 5517 5517 5518 5519 5520 5524 5528 5532 5536 5542 5549 5557 5567 5576 5584 5592 5593 5593 5594 5603 5604 5602 5600 5599 5595 5589 5588 5590 5592 5593 5590 5591
5535 5530 5525 5523 5520 5517 5514 5513 5512 5511 5510 5510 5510 5511 5512 5513 5518 5521 5523 5527 5531 5537 5545 5554 5564 5573 5581 5585 5585 5586 5590 5596 5596 5595 5595 5588 5581 5581 5582 5585 5583 5583 5586
5527 5523 5520 5518 5516 5512 5509 5508 5508 5506 5505 5505 5505 5505 5507 5508 5510 5513 5517 5520 5525 5530 5537 5544 5552 5562 5571 5577 5578 5577 5580 5585 5589 5590 5586 5579 5574 5573 5575 5574 5576 5578 5585
5521 5518 5515 5513 5512 5509 5506 5504 5504 5502 5500 5500 5500 5501 5503 5504 5507 5509 5513 5517 5521 5525 5531 5536 5543 5552 5561 5569 5571 5570 5572 5574 5578 5579 5573 5569 5568 5572 5570 5569 5572 5579 5583
5517 5514 5511 5509 5507 5505 5503 5501 5499 5497 5496 5497 5497 5498 5499 5501 5503 5506 5509 5512 5516 5518 5522 5529 5535 5542 5553 5562 5567 5571 5572 5575 5578 5575 5573 5571 5571 5573 5573 5574 5576 5578 5578
5514 5511 5508 5505 5503 5501 5499 5498 5496 5493 5492 5492 5493 5494 5496 5497 5499 5501 5505 5508 5509 5511 5513 5517 5523 5535 5543 5551 5557 5562 5566 5568 5569 5572 5574 5574 5574 5576 5576 5577 5576 5577 5578